| time (UTC) | temp F | wind direction | speed MPH | gust MPH | rain 1hr in | rain 24hr in | rain mn in | humidity % | barometer mb |
| 20260506062405 | 45 | 180 | 0.0 | 0.0 | 0.00 | 0.00 | 0.66 | 73 | 1016.6 |
| 20260506061905 | 45 | 225 | 0.0 | 0.0 | 0.00 | 0.00 | 0.66 | 73 | 1016.6 |
| 20260506061402 | 45 | 225 | 0.0 | 0.0 | 0.00 | 0.00 | 0.66 | 73 | 1016.5 |
| 20260506060400 | 45 | 225 | 0.0 | 0.0 | 0.00 | 0.00 | 0.66 | 73 | 1016.6 |
| 20260506051347 | 44 | 225 | 0.0 | 0.0 | 0.00 | 0.00 | 0.66 | 72 | 1016.3 |
| 20260506044339 | 45 | 225 | 0.0 | 1.0 | 0.00 | 0.00 | 0.66 | 71 | 1016.0 |
| 20260506041833 | 45 | 225 | 0.0 | 0.0 | 0.00 | 0.00 | 0.66 | 70 | 1015.9 |
| 20260506032817 | 47 | 225 | 0.0 | 1.0 | 0.00 | 0.00 | 0.66 | 68 | 1015.4 |
| 20260506031315 | 48 | 169 | 0.0 | 0.0 | 0.00 | 0.00 | 0.66 | 67 | 1015.2 |
| 20260506025812 | 49 | 180 | 0.0 | 2.0 | 0.00 | 0.00 | 0.66 | 67 | 1015.0 |
| 20260506025313 | 50 | 191 | 0.0 | 1.0 | 0.00 | 0.00 | 0.66 | 66 | 1014.8 |
| 20260506024306 | 50 | 148 | 2.0 | 3.0 | 0.00 | 0.00 | 0.63 | 65 | 1014.9 |
| 20260506020757 | 51 | 180 | 0.0 | 0.0 | 0.00 | 0.00 | 0.63 | 64 | 1014.7 |
| 20260506020255 | 52 | 191 | 0.0 | 1.0 | 0.00 | 0.00 | 0.63 | 64 | 1014.9 |
| 20260506014751 | 53 | 168 | 0.0 | 1.0 | 0.00 | 0.00 | 0.63 | 63 | 1014.6 |
| 20260506013247 | 54 | 180 | 1.0 | 1.0 | 0.00 | 0.00 | 0.63 | 62 | 1014.4 |
| 20260506010742 | 55 | 180 | 1.0 | 1.0 | 0.00 | 0.00 | 0.63 | 61 | 1014.3 |
| 20260506010244 | 56 | 180 | 0.0 | 1.0 | 0.00 | 0.00 | 0.63 | 61 | 1014.2 |
| 20260506005739 | 56 | 180 | 0.0 | 2.0 | 0.00 | 0.00 | 0.63 | 61 | 1014.2 |
| 20260506004258 | 57 | 357 | 1.0 | 1.0 | 0.00 | 0.00 | 0.63 | 61 | 1014.2 |
| 20260506003733 | 57 | 201 | 0.0 | 2.0 | 0.00 | 0.00 | 0.63 | 61 | 1014.1 |
| 20260506000723 | 58 | 229 | 1.0 | 2.0 | 0.00 | 0.00 | 0.63 | 60 | 1014.0 |
| 20260505234719 | 58 | 225 | 0.0 | 2.0 | 0.00 | 0.00 | 0.63 | 60 | 1013.8 |
| 20260505233218 | 58 | 180 | 1.0 | 2.0 | 0.00 | 0.00 | 0.63 | 60 | 1013.7 |
| 20260505232715 | 58 | 200 | 0.0 | 3.0 | 0.00 | 0.00 | 0.63 | 60 | 1013.9 |
| 20260505232211 | 59 | 225 | 0.0 | 2.0 | 0.00 | 0.00 | 0.63 | 60 | 1013.7 |
| 20260505231714 | 59 | 159 | 2.0 | 3.0 | 0.00 | 0.00 | 0.63 | 60 | 1013.7 |
| 20260505224203 | 58 | 225 | 0.0 | 3.0 | 0.00 | 0.00 | 0.63 | 61 | 1013.6 |
| 20260505223157 | 58 | 180 | 1.0 | 3.0 | 0.00 | 0.00 | 0.63 | 62 | 1013.7 |
| 20260505222157 | 58 | 193 | 1.0 | 3.0 | 0.00 | 0.00 | 0.63 | 62 | 1013.7 |
| 20260505221159 | 58 | 190 | 1.0 | 4.0 | 0.00 | 0.00 | 0.63 | 62 | 1013.7 |
| 20260505220652 | 58 | 217 | 2.0 | 5.0 | 0.00 | 0.00 | 0.63 | 62 | 1013.7 |
| 20260505215147 | 58 | 180 | 1.0 | 2.0 | 0.00 | 0.00 | 0.63 | 61 | 1013.6 |
| 20260505214647 | 58 | 186 | 0.0 | 2.0 | 0.00 | 0.00 | 0.63 | 61 | 1013.7 |
| 20260505214144 | 58 | 225 | 1.0 | 3.0 | 0.00 | 0.00 | 0.63 | 61 | 1013.5 |
| 20260505212647 | 57 | 270 | 0.0 | 3.0 | 0.00 | 0.00 | 0.63 | 60 | 1013.6 |
| 20260505204132 | 57 | 180 | 0.0 | 3.0 | 0.00 | 0.00 | 0.63 | 66 | 1013.6 |
| 20260505201622 | 55 | 225 | 0.0 | 4.0 | 0.00 | 0.00 | 0.63 | 68 | 1013.6 |
| 20260505200120 | 53 | 181 | 1.0 | 3.0 | 0.00 | 0.00 | 0.63 | 69 | 1013.6 |
| 20260505193610 | 51 | 288 | 2.0 | 2.0 | 0.00 | 0.00 | 0.63 | 69 | 1013.7 |
| 20260505193109 | 50 | 270 | 1.0 | 3.0 | 0.00 | 0.00 | 0.63 | 69 | 1013.6 |
| 20260505192110 | 50 | 297 | 2.0 | 4.0 | 0.00 | 0.00 | 0.63 | 70 | 1013.7 |
| 20260505191608 | 49 | 148 | 1.0 | 3.0 | 0.00 | 0.00 | 0.63 | 70 | 1013.7 |
| 20260505184055 | 47 | 336 | 2.0 | 3.0 | 0.00 | 0.00 | 0.63 | 71 | 1013.6 |
| 20260505180547 | 46 | 328 | 1.0 | 4.0 | 0.00 | 0.00 | 0.56 | 73 | 1013.4 |
| 20260505175544 | 46 | 320 | 3.0 | 4.0 | 0.00 | 0.00 | 0.51 | 73 | 1013.2 |
| 20260505175047 | 45 | 331 | 2.0 | 3.0 | 0.00 | 0.00 | 0.48 | 74 | 1013.3 |
| 20260505171629 | 45 | 256 | 0.0 | 0.0 | 0.00 | 0.00 | 0.31 | 75 | 1013.0 |
| 20260505171032 | 45 | 180 | 0.0 | 0.0 | 0.00 | 0.00 | 0.29 | 75 | 1012.9 |
| 20260505170530 | 44 | 180 | 0.0 | 0.0 | 0.00 | 0.00 | 0.28 | 75 | 1013.0 |
| 20260505170131 | 44 | 180 | 0.0 | 2.0 | 0.00 | 0.00 | 0.26 | 76 | 1013.0 |
| 20260505165025 | 42 | 225 | 0.0 | 0.0 | 0.00 | 0.00 | 0.23 | 76 | 1013.0 |
| 20260505164022 | 40 | 270 | 0.0 | 0.0 | 0.00 | 0.00 | 0.19 | 77 | 1013.0 |
| 20260505163019 | 40 | 225 | 0.0 | 0.0 | 0.00 | 0.00 | 0.18 | 76 | 1013.1 |
| 20260505162519 | 39 | 225 | 0.0 | 0.0 | 0.00 | 0.00 | 0.17 | 76 | 1013.1 |
| 20260505162017 | 39 | 191 | 0.0 | 0.0 | 0.00 | 0.00 | 0.16 | 76 | 1013.2 |
| 20260505161014 | 39 | 270 | 0.0 | 0.0 | 0.00 | 0.00 | 0.15 | 76 | 1013.0 |
| 20260505160514 | 39 | 225 | 0.0 | 1.0 | 0.00 | 0.00 | 0.15 | 76 | 1013.0 |
| 20260505153004 | 37 | 225 | 0.0 | 0.0 | 0.00 | 0.00 | 0.09 | 77 | 1012.6 |
| 20260505152503 | 37 | 225 | 0.0 | 0.0 | 0.00 | 0.00 | 0.09 | 77 | 1012.5 |
| 20260505152000 | 37 | 225 | 0.0 | 0.0 | 0.00 | 0.00 | 0.08 | 77 | 1012.5 |
| 20260505150457 | 36 | 225 | 0.0 | 0.0 | 0.00 | 0.00 | 0.07 | 76 | 1012.5 |
| 20260505140441 | 35 | 180 | 0.0 | 0.0 | 0.00 | 0.00 | 0.03 | 76 | 1012.3 |
| 20260505124920 | 34 | 0 | 0.0 | 0.0 | 0.00 | 0.00 | 0.00 | 76 | 1012.2 |
| 20260505124419 | 34 | 355 | 0.0 | 0.0 | 0.00 | 0.00 | 0.00 | 76 | 1012.2 |
| 20260505123918 | 34 | 358 | 0.0 | 0.0 | 0.00 | 0.00 | 0.58 | 76 | 1012.0 |
| 20260505123416 | 34 | 357 | 0.0 | 0.0 | 0.00 | 0.00 | 0.58 | 76 | 1012.0 |
| 20260505122914 | 34 | 0 | 0.0 | 0.0 | 0.00 | 0.00 | 0.58 | 76 | 1012.1 |
| 20260505122414 | 34 | 0 | 0.0 | 0.0 | 0.00 | 0.00 | 0.58 | 76 | 1012.0 |
| 20260505121912 | 34 | 357 | 0.0 | 0.0 | 0.00 | 0.00 | 0.57 | 76 | 1012.1 |
| 20260505121411 | 34 | 0 | 0.0 | 0.0 | 0.00 | 0.00 | 0.57 | 76 | 1011.9 |
| 20260505120909 | 34 | 358 | 0.0 | 0.0 | 0.00 | 0.00 | 0.57 | 76 | 1012.0 |
| 20260505115906 | 34 | 358 | 0.0 | 0.0 | 0.00 | 0.00 | 0.57 | 76 | 1011.9 |
| 20260505115406 | 34 | 358 | 0.0 | 0.0 | 0.00 | 0.00 | 0.57 | 76 | 1011.9 |
| 20260505113901 | 34 | 358 | 0.0 | 0.0 | 0.00 | 0.00 | 0.56 | 76 | 1011.8 |
| 20260505113401 | 34 | 0 | 0.0 | 0.0 | 0.00 | 0.00 | 0.56 | 76 | 1012.0 |
| 20260505112858 | 34 | 356 | 0.0 | 0.0 | 0.00 | 0.00 | 0.56 | 76 | 1012.0 |
| 20260505111856 | 34 | 357 | 0.0 | 0.0 | 0.00 | 0.00 | 0.56 | 76 | 1012.1 |
| 20260505110352 | 34 | 0 | 0.0 | 0.0 | 0.00 | 0.00 | 0.55 | 76 | 1011.9 |
| 20260505101338 | 34 | 358 | 0.0 | 0.0 | 0.00 | 0.00 | 0.53 | 76 | 1012.1 |
| 20260505100838 | 34 | 359 | 0.0 | 0.0 | 0.00 | 0.00 | 0.52 | 76 | 1012.2 |
| 20260505100337 | 34 | 0 | 0.0 | 0.0 | 0.00 | 0.00 | 0.52 | 76 | 1012.2 |
| 20260505095333 | 34 | 359 | 0.0 | 0.0 | 0.00 | 0.00 | 0.52 | 76 | 1012.2 |
| 20260505094831 | 34 | 0 | 0.0 | 0.0 | 0.00 | 0.00 | 0.51 | 76 | 1012.3 |
| 20260505094330 | 34 | 0 | 0.0 | 0.0 | 0.00 | 0.00 | 0.51 | 75 | 1012.4 |
| 20260505091323 | 34 | 359 | 0.0 | 0.0 | 0.00 | 0.00 | 0.50 | 76 | 1012.6 |
| 20260505085817 | 34 | 356 | 0.0 | 0.0 | 0.00 | 0.00 | 0.49 | 75 | 1012.7 |
| 20260505085317 | 34 | 358 | 0.0 | 0.0 | 0.00 | 0.00 | 0.49 | 75 | 1012.8 |
| 20260505084815 | 34 | 358 | 0.0 | 0.0 | 0.00 | 0.00 | 0.49 | 75 | 1012.7 |
| 20260505083814 | 34 | 359 | 0.0 | 0.0 | 0.00 | 0.00 | 0.49 | 75 | 1012.6 |
| 20260505083311 | 34 | 357 | 0.0 | 0.0 | 0.00 | 0.00 | 0.49 | 75 | 1012.7 |
| 20260505082809 | 34 | 358 | 0.0 | 0.0 | 0.00 | 0.00 | 0.49 | 75 | 1012.5 |
| 20260505082310 | 34 | 356 | 0.0 | 0.0 | 0.00 | 0.00 | 0.49 | 75 | 1012.7 |
| 20260505081806 | 34 | 358 | 0.0 | 0.0 | 0.00 | 0.00 | 0.49 | 75 | 1012.8 |
| 20260505081306 | 34 | 0 | 0.0 | 0.0 | 0.00 | 0.00 | 0.49 | 75 | 1012.7 |
| 20260505080806 | 34 | 0 | 0.0 | 0.0 | 0.00 | 0.00 | 0.49 | 75 | 1012.8 |
| 20260505074758 | 34 | 359 | 0.0 | 0.0 | 0.00 | 0.00 | 0.49 | 75 | 1013.1 |
| 20260505073755 | 34 | 359 | 0.0 | 0.0 | 0.00 | 0.00 | 0.49 | 75 | 1013.1 |
| 20260505072252 | 34 | 0 | 0.0 | 0.0 | 0.00 | 0.00 | 0.49 | 75 | 1012.7 |
| 20260505070247 | 34 | 359 | 0.0 | 0.0 | 0.00 | 0.00 | 0.49 | 75 | 1012.6 |
| 20260505065745 | 34 | 0 | 0.0 | 0.0 | 0.00 | 0.00 | 0.49 | 75 | 1012.7 |